RYR73XD EGSS-LHBP

Flight info

Callsign RYR73XD
Flight time 2h 6m
Altitude 37000
Route CLN P44 RATLO M197 REDFA DCT TACHA DCT NOMKA DCT OMELO DCT PEPIK DCT NIT/N0353F230 M748 ARFOX
Aircraft B738/M-SDE3FGILRWY/SB1

Departure

Time 2026-05-06 05:21
Airport London Stansted Airport (EGSS)

Arrival

Time 2026-05-06 07:27
Airport Budapest Liszt Ferenc International Airport (LHBP)
Time Latitude Longitude Altitude Speed Heading
2026-05-06 04:45 51.89628 0.26208 354 ft 0 kts 222°
2026-05-06 05:10 51.89639 0.26224 355 ft 4 kts 222°
2026-05-06 05:11 51.89656 0.26249 353 ft 4 kts 230°
2026-05-06 05:11 51.89665 0.26282 356 ft 4 kts 288°
2026-05-06 05:11 51.89650 0.26314 355 ft 4 kts 320°
2026-05-06 05:11 51.89636 0.26334 353 ft 0 kts 313°
2026-05-06 05:13 51.89636 0.26333 353 ft 0 kts 313°
2026-05-06 05:13 51.89642 0.26324 352 ft 3 kts 313°
2026-05-06 05:13 51.89669 0.26278 352 ft 8 kts 314°
2026-05-06 05:14 51.89716 0.26198 348 ft 7 kts 311°
2026-05-06 05:14 51.89732 0.26171 357 ft 5 kts 320°
2026-05-06 05:14 51.89785 0.26115 350 ft 11 kts 322°
2026-05-06 05:14 51.89805 0.26007 352 ft 12 kts 231°
2026-05-06 05:15 51.89749 0.25917 352 ft 11 kts 213°
2026-05-06 05:15 51.89689 0.25839 348 ft 11 kts 229°
2026-05-06 05:15 51.89631 0.25735 348 ft 14 kts 225°
2026-05-06 05:15 51.89543 0.25600 348 ft 21 kts 223°
2026-05-06 05:16 51.89425 0.25429 350 ft 25 kts 219°
2026-05-06 05:16 51.89298 0.25233 351 ft 19 kts 223°
2026-05-06 05:16 51.89214 0.25046 352 ft 23 kts 235°
2026-05-06 05:16 51.89092 0.24852 356 ft 27 kts 223°
2026-05-06 05:17 51.88949 0.24636 348 ft 29 kts 223°
2026-05-06 05:17 51.88808 0.24425 356 ft 27 kts 221°
2026-05-06 05:17 51.88676 0.24228 355 ft 25 kts 223°
2026-05-06 05:17 51.88544 0.24029 353 ft 27 kts 222°
2026-05-06 05:18 51.88406 0.23823 348 ft 27 kts 223°
2026-05-06 05:18 51.88273 0.23623 348 ft 25 kts 223°
2026-05-06 05:18 51.88139 0.23422 355 ft 27 kts 223°
2026-05-06 05:18 51.88002 0.23217 350 ft 26 kts 223°
2026-05-06 05:19 51.87875 0.23026 348 ft 22 kts 225°
2026-05-06 05:19 51.87822 0.22886 351 ft 12 kts 291°
2026-05-06 05:19 51.87881 0.22771 345 ft 16 kts 308°
2026-05-06 05:19 51.87960 0.22689 339 ft 12 kts 15°
2026-05-06 05:20 51.88034 0.22786 336 ft 19 kts 44°
2026-05-06 05:20 51.88313 0.23204 339 ft 92 kts 43°
2026-05-06 05:20 51.88950 0.24155 356 ft 153 kts 41°
2026-05-06 05:20 51.89782 0.25411 904 ft 170 kts 40°
2026-05-06 05:21 51.90611 0.26657 1973 ft 155 kts 42°
2026-05-06 05:21 51.91246 0.28069 2782 ft 162 kts 61°
2026-05-06 05:21 51.91587 0.29996 3084 ft 196 kts 82°
2026-05-06 05:21 51.91400 0.32315 3305 ft 223 kts 108°
2026-05-06 05:22 51.90717 0.34690 3652 ft 239 kts 113°
2026-05-06 05:22 51.89977 0.37230 3919 ft 259 kts 113°
2026-05-06 05:22 51.89207 0.39925 4043 ft 268 kts 113°
2026-05-06 05:22 51.88407 0.42666 4663 ft 270 kts 114°
2026-05-06 05:23 51.87594 0.45424 5514 ft 273 kts 114°
2026-05-06 05:23 51.86773 0.48214 6332 ft 277 kts 114°
2026-05-06 05:23 51.85092 0.53934 7849 ft 285 kts 115°
2026-05-06 05:24 51.84237 0.56841 8632 ft 288 kts 115°
2026-05-06 05:24 51.83456 0.59835 9381 ft 292 kts 101°
2026-05-06 05:24 51.83372 0.63121 10127 ft 294 kts 87°
2026-05-06 05:24 51.83385 0.66455 10742 ft 302 kts 90°
2026-05-06 05:25 51.83310 0.69986 10913 ft 327 kts 92°
2026-05-06 05:25 51.83233 0.73745 11341 ft 340 kts 88°
2026-05-06 05:25 51.83371 0.77576 12057 ft 342 kts 85°
2026-05-06 05:25 51.83563 0.81415 12884 ft 344 kts 85°
2026-05-06 05:26 51.83739 0.85307 13632 ft 349 kts 86°
2026-05-06 05:26 51.83898 0.89240 14335 ft 352 kts 86°
2026-05-06 05:26 51.84047 0.93211 15034 ft 356 kts 86°
2026-05-06 05:26 51.84191 0.97233 15745 ft 360 kts 87°
2026-05-06 05:27 51.84335 1.01304 16452 ft 364 kts 87°
2026-05-06 05:27 51.84479 1.05414 17140 ft 369 kts 87°
2026-05-06 05:27 51.84622 1.09587 17804 ft 374 kts 87°
2026-05-06 05:27 51.84788 1.13799 18462 ft 378 kts 83°
2026-05-06 05:28 51.85503 1.17891 19079 ft 381 kts 67°
2026-05-06 05:28 51.86583 1.21832 19650 ft 386 kts 66°
2026-05-06 05:28 51.87700 1.25816 20182 ft 391 kts 66°
2026-05-06 05:28 51.88820 1.29836 20827 ft 393 kts 66°
2026-05-06 05:29 51.89937 1.33900 21389 ft 397 kts 67°
2026-05-06 05:29 51.91055 1.38016 21952 ft 401 kts 67°
2026-05-06 05:29 51.92172 1.42169 22531 ft 404 kts 67°
2026-05-06 05:29 51.93296 1.46366 23083 ft 408 kts 67°
2026-05-06 05:30 51.94423 1.50593 23601 ft 412 kts 68°
2026-05-06 05:30 51.95563 1.54875 24042 ft 415 kts 67°
2026-05-06 05:30 51.96711 1.59188 24492 ft 418 kts 67°
2026-05-06 05:30 51.97866 1.63538 24923 ft 422 kts 67°
2026-05-06 05:31 51.99015 1.67937 25344 ft 425 kts 70°
2026-05-06 05:31 51.99911 1.72516 25764 ft 427 kts 76°
2026-05-06 05:31 52.00648 1.77200 26195 ft 430 kts 77°
2026-05-06 05:31 52.01350 1.81936 26598 ft 433 kts 77°
2026-05-06 05:32 52.02053 1.86710 26987 ft 436 kts 77°
2026-05-06 05:32 52.02761 1.91449 27378 ft 440 kts 77°
2026-05-06 05:32 52.03495 1.96287 27769 ft 442 kts 77°
2026-05-06 05:32 52.04240 2.01149 28155 ft 445 kts 77°
2026-05-06 05:33 52.04993 2.06039 28523 ft 448 kts 77°
2026-05-06 05:33 52.05754 2.10976 28889 ft 451 kts 77°
2026-05-06 05:33 52.06516 2.15932 29249 ft 454 kts 77°
2026-05-06 05:33 52.07281 2.20928 29592 ft 457 kts 77°
2026-05-06 05:34 52.08047 2.25950 29925 ft 459 kts 77°
2026-05-06 05:34 52.08816 2.31009 30218 ft 462 kts 77°
2026-05-06 05:34 52.09584 2.36082 30559 ft 463 kts 77°
2026-05-06 05:34 52.10353 2.41166 30891 ft 463 kts 77°
2026-05-06 05:35 52.11120 2.46255 31274 ft 462 kts 77°
2026-05-06 05:35 52.11918 2.51301 31741 ft 459 kts 75°
2026-05-06 05:35 52.12822 2.56268 32232 ft 456 kts 73°
2026-05-06 05:35 52.13774 2.61182 32649 ft 455 kts 73°
2026-05-06 05:36 52.14736 2.66084 33000 ft 454 kts 73°
2026-05-06 05:36 52.15690 2.70980 33348 ft 454 kts 73°
2026-05-06 05:36 52.16631 2.75878 33712 ft 453 kts 73°
2026-05-06 05:36 52.17560 2.80782 34059 ft 452 kts 73°
2026-05-06 05:37 52.18480 2.85673 34340 ft 452 kts 73°
2026-05-06 05:37 52.19396 2.90576 34596 ft 452 kts 73°
2026-05-06 05:37 52.20309 2.95475 34842 ft 452 kts 74°
2026-05-06 05:37 52.21221 3.00382 35084 ft 453 kts 74°
2026-05-06 05:38 52.22132 3.05294 35329 ft 453 kts 74°
2026-05-06 05:38 52.23042 3.10205 35582 ft 453 kts 74°
2026-05-06 05:38 52.23950 3.15121 35806 ft 453 kts 74°
2026-05-06 05:38 52.24812 3.20078 36016 ft 453 kts 79°
2026-05-06 05:39 52.25256 3.25158 36223 ft 452 kts 88°
2026-05-06 05:39 52.25222 3.30268 36467 ft 450 kts 98°
2026-05-06 05:39 52.24841 3.35327 36691 ft 449 kts 99°
2026-05-06 05:39 52.24411 3.40370 36867 ft 447 kts 100°
2026-05-06 05:40 52.23523 3.50469 36905 ft 452 kts 99°
2026-05-06 05:40 52.22660 3.60566 36895 ft 453 kts 99°
2026-05-06 05:41 52.21805 3.70816 36900 ft 454 kts 99°
2026-05-06 05:41 52.20956 3.81014 36891 ft 454 kts 99°
2026-05-06 05:42 52.20098 3.91208 36890 ft 454 kts 99°
2026-05-06 05:42 52.19238 4.01323 36884 ft 453 kts 100°
2026-05-06 05:43 52.18364 4.11486 36881 ft 452 kts 99°
2026-05-06 05:43 52.17481 4.21628 36870 ft 452 kts 99°
2026-05-06 05:44 52.16631 4.31310 36869 ft 451 kts 100°
2026-05-06 05:44 52.15735 4.41402 36858 ft 450 kts 100°
2026-05-06 05:45 52.14833 4.51474 36863 ft 449 kts 100°
2026-05-06 05:45 52.13924 4.61520 36855 ft 448 kts 100°
2026-05-06 05:46 52.13008 4.71547 36857 ft 447 kts 100°
2026-05-06 05:46 52.12084 4.81557 36853 ft 447 kts 100°
2026-05-06 05:47 52.11154 4.91542 36920 ft 447 kts 100°
2026-05-06 05:47 52.10214 5.01541 36851 ft 447 kts 100°
2026-05-06 05:48 52.09266 5.11524 36847 ft 446 kts 100°
2026-05-06 05:48 52.08311 5.21493 36837 ft 446 kts 100°
2026-05-06 05:49 52.07351 5.31431 36836 ft 445 kts 101°
2026-05-06 05:49 52.06383 5.41352 36829 ft 444 kts 101°
2026-05-06 05:50 52.05408 5.51251 36830 ft 443 kts 101°
2026-05-06 05:50 52.04427 5.61132 36836 ft 443 kts 101°
2026-05-06 05:51 52.03437 5.71004 36828 ft 443 kts 101°
2026-05-06 05:51 52.02439 5.80885 36831 ft 443 kts 101°
2026-05-06 05:52 52.01433 5.90746 36828 ft 443 kts 101°
2026-05-06 05:52 52.00418 6.00614 36842 ft 443 kts 101°
2026-05-06 05:53 51.99395 6.10482 36832 ft 444 kts 102°
2026-05-06 05:53 51.98369 6.20284 36818 ft 444 kts 102°
2026-05-06 05:54 51.97328 6.30156 36812 ft 444 kts 102°
2026-05-06 05:54 51.96280 6.40004 36799 ft 443 kts 102°
2026-05-06 05:55 51.95225 6.49840 36798 ft 442 kts 102°
2026-05-06 05:55 51.94166 6.59639 36794 ft 441 kts 102°
2026-05-06 05:56 51.93101 6.69407 36791 ft 440 kts 102°
2026-05-06 05:56 51.92030 6.79147 36789 ft 439 kts 102°
2026-05-06 05:57 51.91129 6.87291 36788 ft 438 kts 102°
2026-05-06 05:57 51.90047 6.96991 36783 ft 437 kts 102°
2026-05-06 05:58 51.88967 7.06601 36785 ft 437 kts 102°
2026-05-06 05:58 51.87872 7.16270 36785 ft 437 kts 102°
2026-05-06 05:59 51.86769 7.25929 36787 ft 437 kts 102°
2026-05-06 05:59 51.85658 7.35587 36788 ft 437 kts 103°
2026-05-06 06:00 51.84538 7.45253 36790 ft 437 kts 103°
2026-05-06 06:00 51.83411 7.54910 36787 ft 437 kts 103°
2026-05-06 06:01 51.82273 7.64578 36781 ft 438 kts 103°
2026-05-06 06:01 51.81127 7.74248 36786 ft 438 kts 103°
2026-05-06 06:02 51.79971 7.83934 36780 ft 439 kts 103°
2026-05-06 06:02 51.78805 7.93625 36769 ft 440 kts 103°
2026-05-06 06:03 51.77630 8.03322 36774 ft 440 kts 103°
2026-05-06 06:03 51.76447 8.13016 36767 ft 440 kts 103°
2026-05-06 06:04 51.75258 8.22688 36763 ft 440 kts 103°
2026-05-06 06:04 51.74058 8.32382 36751 ft 440 kts 103°
2026-05-06 06:05 51.72852 8.42053 36744 ft 440 kts 103°
2026-05-06 06:05 51.71639 8.51710 36750 ft 439 kts 103°
2026-05-06 06:06 51.70428 8.61286 36744 ft 439 kts 104°
2026-05-06 06:06 51.69201 8.70916 36743 ft 439 kts 104°
2026-05-06 06:07 51.67967 8.80535 36757 ft 439 kts 104°
2026-05-06 06:07 51.66719 8.90197 36747 ft 441 kts 104°
2026-05-06 06:08 51.65460 8.99877 36731 ft 442 kts 104°
2026-05-06 06:08 51.64192 9.09563 36741 ft 442 kts 104°
2026-05-06 06:09 51.62915 9.19252 36735 ft 443 kts 104°
2026-05-06 06:09 51.61629 9.28941 36740 ft 443 kts 104°
2026-05-06 06:10 51.60335 9.38631 36738 ft 443 kts 104°
2026-05-06 06:10 51.59034 9.48301 36745 ft 443 kts 105°
2026-05-06 06:11 51.57723 9.57983 36745 ft 444 kts 105°
2026-05-06 06:11 51.56387 9.67774 36905 ft 451 kts 105°
2026-05-06 06:12 51.55713 9.72690 37116 ft 451 kts 105°
2026-05-06 06:12 51.55035 9.77625 37323 ft 452 kts 105°
2026-05-06 06:12 51.54356 9.82553 37493 ft 453 kts 105°
2026-05-06 06:12 51.53671 9.87500 37672 ft 454 kts 105°
2026-05-06 06:13 51.52983 9.92459 37865 ft 455 kts 105°
2026-05-06 06:13 51.52291 9.97422 38041 ft 456 kts 105°
2026-05-06 06:13 51.51597 10.02393 38241 ft 457 kts 105°
2026-05-06 06:13 51.50899 10.07369 38394 ft 458 kts 106°
2026-05-06 06:14 51.50198 10.12352 38533 ft 458 kts 106°
2026-05-06 06:14 51.49497 10.17324 38686 ft 456 kts 106°
2026-05-06 06:14 51.48083 10.27288 38732 ft 460 kts 106°
2026-05-06 06:15 51.46655 10.37291 38736 ft 460 kts 106°
2026-05-06 06:15 51.45221 10.47286 38738 ft 459 kts 106°
2026-05-06 06:16 51.43735 10.57212 38737 ft 458 kts 107°
2026-05-06 06:16 51.42156 10.67077 38745 ft 457 kts 108°
2026-05-06 06:17 51.40577 10.76855 38744 ft 456 kts 108°
2026-05-06 06:17 51.38985 10.86738 38746 ft 456 kts 108°
2026-05-06 06:18 51.37409 10.96499 38744 ft 455 kts 108°
2026-05-06 06:18 51.35820 11.06303 38741 ft 455 kts 108°
2026-05-06 06:19 51.34224 11.16088 38742 ft 455 kts 108°
2026-05-06 06:19 51.32620 11.25865 38743 ft 454 kts 108°
2026-05-06 06:20 51.31008 11.35631 38742 ft 454 kts 108°
2026-05-06 06:20 51.29389 11.45385 38752 ft 454 kts 108°
2026-05-06 06:21 51.27759 11.55150 38745 ft 455 kts 108°
2026-05-06 06:21 51.26119 11.64917 38748 ft 455 kts 109°
2026-05-06 06:22 51.24474 11.74663 38745 ft 455 kts 109°
2026-05-06 06:22 51.22818 11.84417 38752 ft 455 kts 109°
2026-05-06 06:23 51.21153 11.94167 38741 ft 456 kts 109°
2026-05-06 06:23 51.19482 12.03902 38741 ft 456 kts 109°
2026-05-06 06:24 51.17799 12.13650 38747 ft 456 kts 109°
2026-05-06 06:24 51.16109 12.23385 38754 ft 456 kts 109°
2026-05-06 06:25 51.14410 12.33117 38765 ft 456 kts 109°
2026-05-06 06:26 51.11844 12.47715 38767 ft 457 kts 109°
2026-05-06 06:26 51.10123 12.57442 38769 ft 457 kts 109°
2026-05-06 06:27 51.08393 12.67163 38769 ft 457 kts 109°
2026-05-06 06:27 51.06654 12.76888 38761 ft 457 kts 109°
2026-05-06 06:28 51.04903 12.86621 38754 ft 458 kts 110°
2026-05-06 06:28 51.03146 12.96341 38744 ft 458 kts 110°
2026-05-06 06:29 51.01380 13.06056 38734 ft 458 kts 110°
2026-05-06 06:29 50.99606 13.15762 38746 ft 457 kts 110°
2026-05-06 06:30 50.97825 13.25457 38745 ft 458 kts 110°
2026-05-06 06:30 50.96035 13.35146 38745 ft 458 kts 110°
2026-05-06 06:31 50.94238 13.44829 38748 ft 458 kts 110°
2026-05-06 06:31 50.92432 13.54507 38747 ft 458 kts 110°
2026-05-06 06:32 50.90618 13.64178 38751 ft 458 kts 110°
2026-05-06 06:32 50.88808 13.73778 38750 ft 458 kts 110°
2026-05-06 06:33 50.86981 13.83427 38752 ft 458 kts 110°
2026-05-06 06:33 50.85143 13.93075 38760 ft 457 kts 112°
2026-05-06 06:34 50.82373 14.01946 38758 ft 446 kts 130°
2026-05-06 06:34 50.78269 14.09133 38771 ft 439 kts 140°
2026-05-06 06:35 50.73906 14.15921 38768 ft 440 kts 140°
2026-05-06 06:35 50.69552 14.22716 38768 ft 440 kts 140°
2026-05-06 06:36 50.65209 14.29541 38764 ft 441 kts 140°
2026-05-06 06:36 50.60871 14.36367 38773 ft 442 kts 140°
2026-05-06 06:37 50.56521 14.43198 38777 ft 442 kts 140°
2026-05-06 06:37 50.52162 14.50024 38785 ft 442 kts 140°
2026-05-06 06:38 50.47797 14.56840 38786 ft 443 kts 140°
2026-05-06 06:38 50.43420 14.63655 38792 ft 443 kts 140°
2026-05-06 06:39 50.39032 14.70467 38794 ft 444 kts 140°
2026-05-06 06:39 50.34636 14.77274 38799 ft 444 kts 140°
2026-05-06 06:40 50.30233 14.84072 38795 ft 445 kts 140°
2026-05-06 06:40 50.25815 14.90874 38798 ft 446 kts 141°
2026-05-06 06:41 50.21388 14.97672 38800 ft 446 kts 141°
2026-05-06 06:41 50.16982 15.04419 38804 ft 447 kts 141°
2026-05-06 06:42 50.12547 15.11193 38805 ft 447 kts 141°
2026-05-06 06:42 50.08825 15.16863 38803 ft 447 kts 141°
2026-05-06 06:43 50.03661 15.24709 38813 ft 446 kts 141°
2026-05-06 06:43 49.99937 15.30351 38818 ft 446 kts 141°
2026-05-06 06:44 49.95501 15.37055 38816 ft 444 kts 141°
2026-05-06 06:44 49.91101 15.43688 38817 ft 443 kts 141°
2026-05-06 06:45 49.86682 15.50331 38818 ft 442 kts 141°
2026-05-06 06:45 49.82267 15.56949 38823 ft 441 kts 141°
2026-05-06 06:46 49.77862 15.63534 38822 ft 440 kts 141°
2026-05-06 06:46 49.73464 15.70092 38828 ft 438 kts 141°
2026-05-06 06:47 49.69076 15.76619 38831 ft 437 kts 141°
2026-05-06 06:47 49.64694 15.83117 38834 ft 437 kts 142°
2026-05-06 06:48 49.60316 15.89595 38840 ft 436 kts 142°
2026-05-06 06:48 49.55927 15.96069 38842 ft 436 kts 142°
2026-05-06 06:49 49.51540 16.02525 38842 ft 436 kts 142°
2026-05-06 06:49 49.47148 16.08971 38842 ft 437 kts 142°
2026-05-06 06:50 49.42750 16.15411 38844 ft 437 kts 142°
2026-05-06 06:50 49.38346 16.21841 38849 ft 437 kts 142°
2026-05-06 06:51 49.33942 16.28255 38857 ft 437 kts 142°
2026-05-06 06:51 49.29528 16.34666 38851 ft 437 kts 142°
2026-05-06 06:52 49.25116 16.41058 38848 ft 437 kts 142°
2026-05-06 06:52 49.20694 16.47449 38853 ft 437 kts 142°
2026-05-06 06:53 49.16271 16.53825 38850 ft 437 kts 142°
2026-05-06 06:53 49.11848 16.60184 38853 ft 437 kts 142°
2026-05-06 06:54 49.07422 16.66531 38857 ft 437 kts 142°
2026-05-06 06:54 49.02992 16.72867 38857 ft 437 kts 142°
2026-05-06 06:55 48.98554 16.79199 38853 ft 437 kts 142°
2026-05-06 06:55 48.94112 16.85521 38856 ft 437 kts 142°
2026-05-06 06:56 48.89664 16.91835 38864 ft 438 kts 142°
2026-05-06 06:56 48.85205 16.98150 38857 ft 438 kts 142°
2026-05-06 06:57 48.80743 17.04455 38863 ft 438 kts 142°
2026-05-06 06:57 48.76618 17.10998 38447 ft 428 kts 133°
2026-05-06 06:57 48.74804 17.14599 37625 ft 434 kts 132°
2026-05-06 06:58 48.72987 17.18306 36777 ft 440 kts 131°
2026-05-06 06:58 48.71176 17.22022 36354 ft 437 kts 131°
2026-05-06 06:58 48.69374 17.25703 35912 ft 434 kts 131°
2026-05-06 06:58 48.67572 17.29352 35504 ft 431 kts 131°
2026-05-06 06:59 48.65777 17.32960 35101 ft 428 kts 131°
2026-05-06 06:59 48.63993 17.36525 34874 ft 419 kts 132°
2026-05-06 06:59 48.62260 17.39984 34602 ft 412 kts 132°
2026-05-06 06:59 48.60506 17.43462 34027 ft 416 kts 132°
2026-05-06 07:00 48.58773 17.46894 33510 ft 417 kts 131°
2026-05-06 07:00 48.57000 17.50403 33102 ft 413 kts 131°
2026-05-06 07:00 48.55284 17.53796 32700 ft 411 kts 131°
2026-05-06 07:00 48.53557 17.57211 32311 ft 408 kts 131°
2026-05-06 07:01 48.51841 17.60598 31920 ft 405 kts 131°
2026-05-06 07:01 48.50136 17.63961 31560 ft 402 kts 132°
2026-05-06 07:01 48.48441 17.67298 31187 ft 399 kts 132°
2026-05-06 07:01 48.46758 17.70609 30817 ft 397 kts 132°
2026-05-06 07:02 48.45085 17.73895 30454 ft 395 kts 132°
2026-05-06 07:02 48.43419 17.77164 30097 ft 392 kts 132°
2026-05-06 07:02 48.41759 17.80416 29698 ft 390 kts 132°
2026-05-06 07:02 48.40111 17.83641 29282 ft 388 kts 132°
2026-05-06 07:03 48.38471 17.86849 28879 ft 385 kts 132°
2026-05-06 07:03 48.36848 17.90018 28527 ft 381 kts 132°
2026-05-06 07:03 48.35235 17.93166 28133 ft 378 kts 132°
2026-05-06 07:03 48.33635 17.96283 27762 ft 375 kts 132°
2026-05-06 07:04 48.32046 17.99376 27400 ft 373 kts 132°
2026-05-06 07:04 48.30464 18.02451 27027 ft 371 kts 132°
2026-05-06 07:04 48.28886 18.05487 26661 ft 368 kts 134°
2026-05-06 07:04 48.27224 18.08402 26201 ft 367 kts 136°
2026-05-06 07:05 48.25515 18.11236 25827 ft 365 kts 137°
2026-05-06 07:05 48.23799 18.14040 25453 ft 363 kts 137°
2026-05-06 07:05 48.22096 18.16823 25091 ft 362 kts 136°
2026-05-06 07:05 48.20403 18.19602 24734 ft 360 kts 136°
2026-05-06 07:06 48.18723 18.22371 24376 ft 358 kts 136°
2026-05-06 07:06 48.17048 18.25136 24004 ft 357 kts 136°
2026-05-06 07:06 48.15388 18.27880 23672 ft 356 kts 136°
2026-05-06 07:06 48.13726 18.30627 23276 ft 355 kts 136°
2026-05-06 07:07 48.12071 18.33362 22876 ft 353 kts 136°
2026-05-06 07:07 48.10426 18.36079 22501 ft 351 kts 136°
2026-05-06 07:07 48.08793 18.38772 22144 ft 349 kts 136°
2026-05-06 07:07 48.07168 18.41450 21788 ft 346 kts 136°
2026-05-06 07:08 48.05557 18.44102 21444 ft 344 kts 135°
2026-05-06 07:08 48.03954 18.46738 21097 ft 342 kts 135°
2026-05-06 07:08 48.02360 18.49358 20757 ft 340 kts 135°
2026-05-06 07:08 48.00773 18.51961 20416 ft 338 kts 135°
2026-05-06 07:09 47.99191 18.54553 20066 ft 337 kts 135°
2026-05-06 07:09 47.97738 18.57296 19725 ft 339 kts 125°
2026-05-06 07:09 47.96690 18.60450 19398 ft 340 kts 112°
2026-05-06 07:09 47.95923 18.63784 19053 ft 339 kts 110°
2026-05-06 07:10 47.95203 18.67129 18712 ft 339 kts 110°
2026-05-06 07:10 47.94486 18.70472 18370 ft 338 kts 110°
2026-05-06 07:10 47.93761 18.73806 17998 ft 338 kts 110°
2026-05-06 07:10 47.93030 18.77124 17624 ft 336 kts 111°
2026-05-06 07:11 47.92296 18.80421 17274 ft 335 kts 111°
2026-05-06 07:11 47.91571 18.83657 16919 ft 333 kts 111°
2026-05-06 07:11 47.90838 18.86920 16605 ft 331 kts 111°
2026-05-06 07:11 47.90109 18.90155 16256 ft 329 kts 111°
2026-05-06 07:12 47.89379 18.93383 15924 ft 328 kts 111°
2026-05-06 07:12 47.88651 18.96588 15596 ft 326 kts 113°
2026-05-06 07:12 47.87644 18.99557 15243 ft 318 kts 130°
2026-05-06 07:12 47.86235 19.02043 14957 ft 313 kts 136°
2026-05-06 07:13 47.84738 19.04397 14631 ft 313 kts 137°
2026-05-06 07:13 47.83231 19.06727 14302 ft 312 kts 137°
2026-05-06 07:13 47.81738 19.09059 13984 ft 311 kts 137°
2026-05-06 07:13 47.80259 19.11401 13656 ft 311 kts 137°
2026-05-06 07:14 47.78785 19.13751 13300 ft 310 kts 137°
2026-05-06 07:14 47.77318 19.16095 12954 ft 309 kts 137°
2026-05-06 07:14 47.75859 19.18431 12625 ft 308 kts 136°
2026-05-06 07:14 47.74430 19.20797 12303 ft 307 kts 135°
2026-05-06 07:15 47.73022 19.23162 11983 ft 305 kts 135°
2026-05-06 07:15 47.71618 19.25520 11659 ft 304 kts 135°
2026-05-06 07:15 47.70218 19.27861 11348 ft 302 kts 136°
2026-05-06 07:15 47.68826 19.30182 11042 ft 300 kts 136°
2026-05-06 07:16 47.67437 19.32488 10735 ft 298 kts 136°
2026-05-06 07:16 47.66038 19.34756 10424 ft 298 kts 137°
2026-05-06 07:16 47.64638 19.37010 10117 ft 297 kts 137°
2026-05-06 07:16 47.63121 19.38951 9950 ft 280 kts 157°
2026-05-06 07:17 47.61308 19.39738 9714 ft 267 kts 181°
2026-05-06 07:17 47.59504 19.39404 9423 ft 260 kts 199°
2026-05-06 07:17 47.57900 19.38235 9099 ft 258 kts 218°
2026-05-06 07:17 47.56552 19.36502 8810 ft 256 kts 222°
2026-05-06 07:18 47.55267 19.34682 8557 ft 253 kts 231°
2026-05-06 07:18 47.54503 19.32416 8454 ft 246 kts 254°
2026-05-06 07:18 47.54404 19.29893 8242 ft 248 kts 274°
2026-05-06 07:18 47.54914 19.27451 7998 ft 252 kts 294°
2026-05-06 07:19 47.55971 19.25353 7751 ft 255 kts 307°
2026-05-06 07:19 47.57172 19.23422 7473 ft 255 kts 309°
2026-05-06 07:19 47.58385 19.21503 7219 ft 254 kts 309°
2026-05-06 07:19 47.59592 19.19585 6971 ft 255 kts 308°
2026-05-06 07:20 47.60800 19.17652 6690 ft 256 kts 309°
2026-05-06 07:20 47.61998 19.15698 6423 ft 256 kts 309°
2026-05-06 07:20 47.63201 19.13743 6136 ft 257 kts 309°
2026-05-06 07:20 47.64409 19.11784 5856 ft 257 kts 309°
2026-05-06 07:21 47.65582 19.09798 5581 ft 254 kts 300°
2026-05-06 07:21 47.66125 19.07426 5491 ft 238 kts 270°
2026-05-06 07:21 47.65849 19.05081 5353 ft 228 kts 246°
2026-05-06 07:21 47.65025 19.03143 5255 ft 221 kts 227°
2026-05-06 07:22 47.63919 19.01568 5197 ft 221 kts 222°
2026-05-06 07:22 47.62747 19.00016 4957 ft 231 kts 221°
2026-05-06 07:22 47.61494 18.98497 4699 ft 235 kts 210°
2026-05-06 07:22 47.59890 18.98067 4418 ft 239 kts 170°
2026-05-06 07:23 47.58471 18.99271 4184 ft 240 kts 134°
2026-05-06 07:23 47.57475 19.01212 3957 ft 235 kts 131°
2026-05-06 07:23 47.56467 19.03112 3819 ft 234 kts 131°
2026-05-06 07:23 47.55411 19.04989 3544 ft 239 kts 134°
2026-05-06 07:24 47.54301 19.06813 3256 ft 236 kts 136°
2026-05-06 07:24 47.53190 19.08603 2914 ft 236 kts 135°
2026-05-06 07:24 47.52090 19.10380 2593 ft 231 kts 136°
2026-05-06 07:24 47.51042 19.12080 2270 ft 215 kts 136°
2026-05-06 07:25 47.50063 19.13658 1996 ft 200 kts 136°
2026-05-06 07:25 47.49163 19.15129 1732 ft 185 kts 136°
2026-05-06 07:25 47.48320 19.16488 1481 ft 175 kts 137°
2026-05-06 07:25 47.47797 19.17348 1367 ft 163 kts 135°
2026-05-06 07:26 47.47099 19.18471 1109 ft 152 kts 136°
2026-05-06 07:26 47.46393 19.19624 897 ft 150 kts 134°
2026-05-06 07:26 47.45704 19.20759 724 ft 147 kts 135°
2026-05-06 07:26 47.45013 19.21870 541 ft 146 kts 137°
2026-05-06 07:27 47.44343 19.22923 451 ft 131 kts 134°
2026-05-06 07:27 47.43837 19.23749 454 ft 86 kts 133°
2026-05-06 07:27 47.43532 19.24233 450 ft 39 kts 132°
2026-05-06 07:27 47.43353 19.24523 452 ft 37 kts 133°
2026-05-06 07:28 47.43213 19.24750 455 ft 19 kts 132°
2026-05-06 07:28 47.43125 19.24896 456 ft 19 kts 126°
2026-05-06 07:28 47.43189 19.25182 456 ft 17 kts 41°
2026-05-06 07:29 47.43264 19.25280 456 ft 18 kts 42°
2026-05-06 07:29 47.43357 19.25402 456 ft 18 kts 44°
2026-05-06 07:29 47.43452 19.25534 456 ft 19 kts 43°
2026-05-06 07:29 47.43527 19.25634 456 ft 9 kts 44°
2026-05-06 07:30 47.43546 19.25706 456 ft 6 kts 113°
2026-05-06 07:30 47.43517 19.25759 456 ft 7 kts 131°
2026-05-06 07:30 47.43485 19.25823 454 ft 8 kts 120°
2026-05-06 07:30 47.43446 19.25895 456 ft 8 kts 132°
2026-05-06 07:31 47.43428 19.25916 456 ft 4 kts 156°
2026-05-06 07:31 47.43406 19.25899 456 ft 4 kts 222°
2026-05-06 07:31 47.43383 19.25867 456 ft 5 kts 223°
2026-05-06 07:31 47.43366 19.25845 455 ft 2 kts 222°
2026-05-06 07:32 47.43362 19.25839 456 ft 0 kts 222°